Year,Month,Day,Hour,Minute,Value (Times are PST for temperature in C)
2014,09,21,00,00,16.70
2014,09,21,00,01,16.70
2014,09,21,00,02,16.60
2014,09,21,00,03,16.60
2014,09,21,00,04,16.60
2014,09,21,00,05,16.60
2014,09,21,00,06,16.60
2014,09,21,00,07,16.60
2014,09,21,00,08,16.60
2014,09,21,00,09,16.70
2014,09,21,00,10,16.70
2014,09,21,00,11,16.70
2014,09,21,00,12,16.70
2014,09,21,00,13,16.80
2014,09,21,00,14,16.80
2014,09,21,00,15,16.80
2014,09,21,00,16,16.80
2014,09,21,00,17,16.80
2014,09,21,00,18,16.90
2014,09,21,00,19,16.90
2014,09,21,00,20,16.90
2014,09,21,00,21,16.90
2014,09,21,00,22,16.80
2014,09,21,00,23,16.80
2014,09,21,00,24,16.80
2014,09,21,00,25,16.80
2014,09,21,00,26,16.70
2014,09,21,00,27,16.70
2014,09,21,00,28,16.70
2014,09,21,00,29,16.70
2014,09,21,00,30,16.60
2014,09,21,00,31,16.60
2014,09,21,00,32,16.60
2014,09,21,00,33,16.60
2014,09,21,00,34,16.60
2014,09,21,00,35,16.60
2014,09,21,00,36,16.60
2014,09,21,00,37,16.60
2014,09,21,00,38,16.60
2014,09,21,00,39,16.50
2014,09,21,00,40,16.50
2014,09,21,00,41,16.50
2014,09,21,00,42,16.50
2014,09,21,00,43,16.50
2014,09,21,00,44,16.50
2014,09,21,00,45,16.50
2014,09,21,00,46,16.50
2014,09,21,00,47,16.50
2014,09,21,00,48,16.50
2014,09,21,00,49,16.50
2014,09,21,00,50,16.50
2014,09,21,00,51,16.50
2014,09,21,00,52,16.50
2014,09,21,00,53,16.50
2014,09,21,00,54,16.50
2014,09,21,00,55,16.50
2014,09,21,00,56,16.50
2014,09,21,00,57,16.50
2014,09,21,00,58,16.50
2014,09,21,00,59,16.40
2014,09,21,01,00,16.40
2014,09,21,01,01,16.40
2014,09,21,01,02,16.40
2014,09,21,01,03,16.50
2014,09,21,01,04,16.50
2014,09,21,01,05,16.50
2014,09,21,01,06,16.50
2014,09,21,01,07,16.50
2014,09,21,01,08,16.50
2014,09,21,01,09,16.50
2014,09,21,01,10,16.50
2014,09,21,01,11,16.50
2014,09,21,01,12,16.50
2014,09,21,01,13,16.50
2014,09,21,01,14,16.50
2014,09,21,01,15,16.40
2014,09,21,01,16,16.40
2014,09,21,01,17,16.40
2014,09,21,01,18,16.30
2014,09,21,01,19,16.30
2014,09,21,01,20,16.20
2014,09,21,01,21,16.10
2014,09,21,01,22,16.00
2014,09,21,01,23,16.00
2014,09,21,01,24,15.90
2014,09,21,01,25,15.80
2014,09,21,01,26,15.80
2014,09,21,01,27,15.70
2014,09,21,01,28,15.60
2014,09,21,01,29,15.40
2014,09,21,01,30,15.30
2014,09,21,01,31,15.20
2014,09,21,01,32,15.10
2014,09,21,01,33,15.00
2014,09,21,01,34,15.00
2014,09,21,01,35,15.00
2014,09,21,01,36,14.90
2014,09,21,01,37,14.80
2014,09,21,01,38,14.70
2014,09,21,01,39,14.70
2014,09,21,01,40,14.60
2014,09,21,01,41,14.60
2014,09,21,01,42,14.50
2014,09,21,01,43,14.40
2014,09,21,01,44,14.40
2014,09,21,01,45,14.30
2014,09,21,01,46,14.20
2014,09,21,01,47,14.20
2014,09,21,01,48,14.10
2014,09,21,01,49,14.10
2014,09,21,01,50,14.10
2014,09,21,01,51,14.00
2014,09,21,01,52,14.00
2014,09,21,01,53,13.90
2014,09,21,01,54,13.90
2014,09,21,01,55,13.90
2014,09,21,01,56,13.80
2014,09,21,01,57,13.80
2014,09,21,01,58,13.80
2014,09,21,01,59,13.90
2014,09,21,02,00,13.90
2014,09,21,02,01,13.90
2014,09,21,02,02,13.90
2014,09,21,02,03,13.90
2014,09,21,02,04,13.90
2014,09,21,02,05,13.90
2014,09,21,02,06,13.90
2014,09,21,02,07,13.90
2014,09,21,02,08,13.90
2014,09,21,02,09,13.90
2014,09,21,02,10,13.90
2014,09,21,02,11,14.00
2014,09,21,02,12,14.10
2014,09,21,02,13,14.10
2014,09,21,02,14,14.30
2014,09,21,02,15,14.40
2014,09,21,02,16,14.60
2014,09,21,02,17,14.80
2014,09,21,02,18,15.00
2014,09,21,02,19,15.00
2014,09,21,02,20,15.00
2014,09,21,02,21,15.20
2014,09,21,02,22,15.30
2014,09,21,02,23,15.40
2014,09,21,02,24,15.50
2014,09,21,02,25,15.60
2014,09,21,02,26,15.80
2014,09,21,02,27,15.90
2014,09,21,02,28,15.90
2014,09,21,02,29,16.00
2014,09,21,02,30,16.10
2014,09,21,02,31,16.20
2014,09,21,02,32,16.30
2014,09,21,02,33,16.30
2014,09,21,02,34,16.30
2014,09,21,02,35,16.40
2014,09,21,02,36,16.40
2014,09,21,02,37,16.50
2014,09,21,02,38,16.60
2014,09,21,02,39,16.60
2014,09,21,02,40,16.70
2014,09,21,02,41,16.70
2014,09,21,02,42,16.70
2014,09,21,02,43,16.80
2014,09,21,02,44,16.80
2014,09,21,02,45,16.80
2014,09,21,02,46,16.90
2014,09,21,02,47,16.90
2014,09,21,02,48,16.90
2014,09,21,02,49,16.90
2014,09,21,02,50,16.90
2014,09,21,02,51,16.90
2014,09,21,02,52,16.90
2014,09,21,02,53,16.90
2014,09,21,02,54,16.90
2014,09,21,02,55,16.90
2014,09,21,02,56,16.90
2014,09,21,02,57,16.90
2014,09,21,02,58,16.90
2014,09,21,02,59,16.90
2014,09,21,03,00,16.90
2014,09,21,03,01,16.90
2014,09,21,03,02,16.90
2014,09,21,03,03,16.90
2014,09,21,03,04,16.70
2014,09,21,03,05,16.60
2014,09,21,03,06,16.40
2014,09,21,03,07,16.30
2014,09,21,03,08,16.10
2014,09,21,03,09,15.90
2014,09,21,03,10,15.80
2014,09,21,03,11,15.60
2014,09,21,03,12,15.50
2014,09,21,03,13,15.40
2014,09,21,03,14,15.30
2014,09,21,03,15,15.30
2014,09,21,03,16,15.30
2014,09,21,03,17,15.30
2014,09,21,03,18,15.30
2014,09,21,03,19,15.30
2014,09,21,03,20,15.30
2014,09,21,03,21,15.30
2014,09,21,03,22,15.40
2014,09,21,03,23,15.40
2014,09,21,03,24,15.50
2014,09,21,03,25,15.60
2014,09,21,03,26,15.70
2014,09,21,03,27,15.70
2014,09,21,03,28,15.80
2014,09,21,03,29,15.90
2014,09,21,03,30,16.00
2014,09,21,03,31,16.00
2014,09,21,03,32,16.10
2014,09,21,03,33,16.10
2014,09,21,03,34,16.20
2014,09,21,03,35,16.20
2014,09,21,03,36,16.20
2014,09,21,03,37,16.20
2014,09,21,03,38,16.20
2014,09,21,03,39,16.20
2014,09,21,03,40,16.30
2014,09,21,03,41,16.30
2014,09,21,03,42,16.30
2014,09,21,03,43,16.30
2014,09,21,03,44,16.20
2014,09,21,03,45,16.20
2014,09,21,03,46,16.20
2014,09,21,03,47,16.20
2014,09,21,03,48,16.20
2014,09,21,03,49,16.20
2014,09,21,03,50,16.30
2014,09,21,03,51,16.30
2014,09,21,03,52,16.20
2014,09,21,03,53,16.20
2014,09,21,03,54,16.20
2014,09,21,03,55,16.20
2014,09,21,03,56,16.20
2014,09,21,03,57,16.10
2014,09,21,03,58,16.10
2014,09,21,03,59,16.10
2014,09,21,04,00,16.10
2014,09,21,04,01,16.00
2014,09,21,04,02,15.90
2014,09,21,04,03,15.90
2014,09,21,04,04,15.80
2014,09,21,04,05,15.80
2014,09,21,04,06,15.70
2014,09,21,04,07,15.70
2014,09,21,04,08,15.70
2014,09,21,04,09,15.70
2014,09,21,04,10,15.70
2014,09,21,04,11,15.70
2014,09,21,04,12,15.70
2014,09,21,04,13,15.70
2014,09,21,04,14,15.70
2014,09,21,04,15,15.70
2014,09,21,04,16,15.70
2014,09,21,04,17,15.70
2014,09,21,04,18,15.70
2014,09,21,04,19,15.70
2014,09,21,04,20,15.70
2014,09,21,04,21,15.70
2014,09,21,04,22,15.70
2014,09,21,04,23,15.70
2014,09,21,04,24,15.80
2014,09,21,04,25,15.80
2014,09,21,04,26,15.80
2014,09,21,04,27,15.80
2014,09,21,04,28,15.80
2014,09,21,04,29,15.80
2014,09,21,04,30,15.80
2014,09,21,04,31,15.80
2014,09,21,04,32,15.90
2014,09,21,04,33,15.90
2014,09,21,04,34,15.90
2014,09,21,04,35,16.00
2014,09,21,04,36,16.00
2014,09,21,04,37,16.10
2014,09,21,04,38,16.10
2014,09,21,04,39,16.10
2014,09,21,04,40,16.20
2014,09,21,04,41,16.20
2014,09,21,04,42,16.20
2014,09,21,04,43,16.20
2014,09,21,04,44,16.30
2014,09,21,04,45,16.30
2014,09,21,04,46,16.30
2014,09,21,04,47,16.30
2014,09,21,04,48,16.30
2014,09,21,04,49,16.30
2014,09,21,04,50,16.30
2014,09,21,04,51,16.30
2014,09,21,04,52,16.30
2014,09,21,04,53,16.30
2014,09,21,04,54,16.30
2014,09,21,04,55,16.40
2014,09,21,04,56,16.30
2014,09,21,04,57,16.30
2014,09,21,04,58,16.30
2014,09,21,04,59,16.30
2014,09,21,05,00,16.20
2014,09,21,05,01,16.10
2014,09,21,05,02,16.10
2014,09,21,05,03,16.00
2014,09,21,05,04,15.90
2014,09,21,05,05,15.80
2014,09,21,05,06,15.70
2014,09,21,05,07,15.70
2014,09,21,05,08,15.70
2014,09,21,05,09,15.70
2014,09,21,05,10,15.70
2014,09,21,05,11,15.70
2014,09,21,05,12,15.70
2014,09,21,05,13,15.60
2014,09,21,05,14,15.50
2014,09,21,05,15,15.30
2014,09,21,05,16,15.20
2014,09,21,05,17,15.00
2014,09,21,05,18,15.00
2014,09,21,05,19,15.00
2014,09,21,05,20,14.80
2014,09,21,05,21,14.80
2014,09,21,05,22,14.70
2014,09,21,05,23,14.80
2014,09,21,05,24,14.80
2014,09,21,05,25,14.90
2014,09,21,05,26,15.00
2014,09,21,05,27,15.00
2014,09,21,05,28,15.00
2014,09,21,05,29,15.00
2014,09,21,05,30,15.00
2014,09,21,05,31,15.00
2014,09,21,05,32,15.00
2014,09,21,05,33,15.00
2014,09,21,05,34,15.00
2014,09,21,05,35,15.00
2014,09,21,05,36,15.00
2014,09,21,05,37,15.00
2014,09,21,05,38,15.00
2014,09,21,05,39,14.90
2014,09,21,05,40,14.90
2014,09,21,05,41,14.80
2014,09,21,05,42,14.80
2014,09,21,05,43,14.80
2014,09,21,05,44,14.80
2014,09,21,05,45,14.80
2014,09,21,05,46,14.80
2014,09,21,05,47,14.80
2014,09,21,05,48,14.80
2014,09,21,05,49,14.80
2014,09,21,05,50,14.80
2014,09,21,05,51,14.90
2014,09,21,05,52,14.90
2014,09,21,05,53,15.00
2014,09,21,05,54,15.00
2014,09,21,05,55,15.00
2014,09,21,05,56,15.10
2014,09,21,05,57,15.20
2014,09,21,05,58,15.30
2014,09,21,05,59,15.40
2014,09,21,06,00,15.50
2014,09,21,06,01,15.60
2014,09,21,06,02,15.70
2014,09,21,06,03,15.70
2014,09,21,06,04,15.80
2014,09,21,06,05,15.80
2014,09,21,06,06,15.80
2014,09,21,06,07,15.80
2014,09,21,06,08,15.80
2014,09,21,06,09,15.80
2014,09,21,06,10,15.80
2014,09,21,06,11,15.80
2014,09,21,06,12,15.70
2014,09,21,06,13,15.70
2014,09,21,06,14,15.70
2014,09,21,06,15,15.60
2014,09,21,06,16,15.60
2014,09,21,06,17,15.60
2014,09,21,06,18,15.60
2014,09,21,06,19,15.60
2014,09,21,06,20,15.60
2014,09,21,06,21,15.60
2014,09,21,06,22,15.50
2014,09,21,06,23,15.50
2014,09,21,06,24,15.40
2014,09,21,06,25,15.40
2014,09,21,06,26,15.40
2014,09,21,06,27,15.30
2014,09,21,06,28,15.30
2014,09,21,06,29,15.30
2014,09,21,06,30,15.30
2014,09,21,06,31,15.30
2014,09,21,06,32,15.30
2014,09,21,06,33,15.30
2014,09,21,06,34,15.30
2014,09,21,06,35,15.20
2014,09,21,06,36,15.20
2014,09,21,06,37,15.20
2014,09,21,06,38,15.20
2014,09,21,06,39,15.20
2014,09,21,06,40,15.20
2014,09,21,06,41,15.10
2014,09,21,06,42,15.10
2014,09,21,06,43,15.10
2014,09,21,06,44,15.10
2014,09,21,06,45,15.10
2014,09,21,06,46,15.10
2014,09,21,06,47,15.20
2014,09,21,06,48,15.20
2014,09,21,06,49,15.20
2014,09,21,06,50,15.20
2014,09,21,06,51,15.10
2014,09,21,06,52,15.10
2014,09,21,06,53,15.00
2014,09,21,06,54,15.00
2014,09,21,06,55,15.00
2014,09,21,06,56,15.00
2014,09,21,06,57,15.00
2014,09,21,06,58,15.00
2014,09,21,06,59,15.00
2014,09,21,07,00,15.00
2014,09,21,07,01,15.00
2014,09,21,07,02,15.00
2014,09,21,07,03,15.00
2014,09,21,07,04,15.00
2014,09,21,07,05,15.00
2014,09,21,07,06,14.90
2014,09,21,07,07,14.90
2014,09,21,07,08,14.90
2014,09,21,07,09,14.90
2014,09,21,07,10,14.90
2014,09,21,07,11,15.00
2014,09,21,07,12,15.00
2014,09,21,07,13,15.00
2014,09,21,07,14,15.10
2014,09,21,07,15,15.20
2014,09,21,07,16,15.30
2014,09,21,07,17,15.40
2014,09,21,07,18,15.40
2014,09,21,07,19,15.40
2014,09,21,07,20,15.40
2014,09,21,07,21,15.40
2014,09,21,07,22,15.40
2014,09,21,07,23,15.50
2014,09,21,07,24,15.50
2014,09,21,07,25,15.60
2014,09,21,07,26,15.70
2014,09,21,07,27,15.80
2014,09,21,07,28,15.80
2014,09,21,07,29,15.90
2014,09,21,07,30,15.90
2014,09,21,07,31,15.90
2014,09,21,07,32,15.90
2014,09,21,07,33,15.90
2014,09,21,07,34,15.90
2014,09,21,07,35,15.90
2014,09,21,07,36,16.00
2014,09,21,07,37,16.00
2014,09,21,07,38,16.00
2014,09,21,07,39,16.00
2014,09,21,07,40,16.10
2014,09,21,07,41,16.10
2014,09,21,07,42,16.10
2014,09,21,07,43,16.10
2014,09,21,07,44,16.20
2014,09,21,07,45,16.20
2014,09,21,07,46,16.30
2014,09,21,07,47,16.30
2014,09,21,07,48,16.30
2014,09,21,07,49,16.30
2014,09,21,07,50,16.30
2014,09,21,07,51,16.40
2014,09,21,07,52,16.40
2014,09,21,07,53,16.40
2014,09,21,07,54,16.30
2014,09,21,07,55,16.30
2014,09,21,07,56,16.20
2014,09,21,07,57,16.10
2014,09,21,07,58,16.00
2014,09,21,07,59,15.90
2014,09,21,08,00,15.90
2014,09,21,08,01,15.80
2014,09,21,08,02,15.70
2014,09,21,08,03,15.70
2014,09,21,08,04,15.60
2014,09,21,08,05,15.50
2014,09,21,08,06,15.50
2014,09,21,08,07,15.40
2014,09,21,08,08,15.40
2014,09,21,08,09,15.30
2014,09,21,08,10,15.30
2014,09,21,08,11,15.30
2014,09,21,08,12,15.20
2014,09,21,08,13,15.20
2014,09,21,08,14,15.20
2014,09,21,08,15,15.20
2014,09,21,08,16,15.20
2014,09,21,08,17,15.20
2014,09,21,08,18,15.20
2014,09,21,08,19,15.30
2014,09,21,08,20,15.30
2014,09,21,08,21,15.30
2014,09,21,08,22,15.30
2014,09,21,08,23,15.30
2014,09,21,08,24,15.30
2014,09,21,08,25,15.30
2014,09,21,08,26,15.30
2014,09,21,08,27,15.30
2014,09,21,08,28,15.30
2014,09,21,08,29,15.30
2014,09,21,08,30,15.30
2014,09,21,08,31,15.30
2014,09,21,08,32,15.30
2014,09,21,08,33,15.30
2014,09,21,08,34,15.40
2014,09,21,08,35,15.40
2014,09,21,08,36,15.50
2014,09,21,08,37,15.50
2014,09,21,08,38,15.60
2014,09,21,08,39,15.70
2014,09,21,08,40,15.80
2014,09,21,08,41,15.80
2014,09,21,08,42,15.90
2014,09,21,08,43,16.00
2014,09,21,08,44,16.20
2014,09,21,08,45,16.30
2014,09,21,08,46,16.40
2014,09,21,08,47,16.50
2014,09,21,08,48,16.60
2014,09,21,08,49,16.70
2014,09,21,08,50,16.80
2014,09,21,08,51,16.90
2014,09,21,08,52,17.00
2014,09,21,08,53,17.10
2014,09,21,08,54,17.10
2014,09,21,08,55,17.10
2014,09,21,08,56,17.10
2014,09,21,08,57,17.00
2014,09,21,08,58,17.00
2014,09,21,08,59,17.00
2014,09,21,09,00,17.00
2014,09,21,09,01,17.10
2014,09,21,09,02,17.10
2014,09,21,09,03,17.20
2014,09,21,09,04,17.20
2014,09,21,09,05,17.30
2014,09,21,09,06,17.40
2014,09,21,09,07,17.40
2014,09,21,09,08,17.50
2014,09,21,09,09,17.50
2014,09,21,09,10,17.60
2014,09,21,09,11,17.70
2014,09,21,09,12,17.70
2014,09,21,09,13,17.80
2014,09,21,09,14,17.90
2014,09,21,09,15,18.00
2014,09,21,09,16,18.10
2014,09,21,09,17,18.10
2014,09,21,09,18,18.20
2014,09,21,09,19,18.20
2014,09,21,09,20,18.20
2014,09,21,09,21,18.30
2014,09,21,09,22,18.30
2014,09,21,09,23,18.30
2014,09,21,09,24,18.30
2014,09,21,09,25,18.30
2014,09,21,09,26,18.30
2014,09,21,09,27,18.30
2014,09,21,09,28,18.30
2014,09,21,09,29,18.30
2014,09,21,09,30,18.40
2014,09,21,09,31,18.40
2014,09,21,09,32,18.50
2014,09,21,09,33,18.50
2014,09,21,09,34,18.60
2014,09,21,09,35,18.60
2014,09,21,09,36,18.70
2014,09,21,09,37,18.70
2014,09,21,09,38,18.80
2014,09,21,09,39,18.90
2014,09,21,09,40,18.90
2014,09,21,09,41,19.00
2014,09,21,09,42,19.10
2014,09,21,09,43,19.10
2014,09,21,09,44,19.20
2014,09,21,09,45,19.20
2014,09,21,09,46,19.20
2014,09,21,09,47,19.20
2014,09,21,09,48,19.30
2014,09,21,09,49,19.30
2014,09,21,09,50,19.30
2014,09,21,09,51,19.30
2014,09,21,09,52,19.30
2014,09,21,09,53,19.40
2014,09,21,09,54,19.50
2014,09,21,09,55,19.50
2014,09,21,09,56,19.60
2014,09,21,09,57,19.70
2014,09,21,09,58,19.70
2014,09,21,09,59,19.70
2014,09,21,10,00,19.80
2014,09,21,10,01,19.80
2014,09,21,10,02,19.90
2014,09,21,10,03,19.90
2014,09,21,10,04,19.90
2014,09,21,10,05,19.90
2014,09,21,10,06,20.00
2014,09,21,10,07,20.00
2014,09,21,10,08,20.10
2014,09,21,10,09,20.10
2014,09,21,10,10,20.20
2014,09,21,10,11,20.20
2014,09,21,10,12,20.20
2014,09,21,10,13,20.20
2014,09,21,10,14,20.20
2014,09,21,10,15,20.30
2014,09,21,10,16,20.30
2014,09,21,10,17,20.30
2014,09,21,10,18,20.30
2014,09,21,10,19,20.30
2014,09,21,10,20,20.40
2014,09,21,10,21,20.40
2014,09,21,10,22,20.40
2014,09,21,10,23,20.50
2014,09,21,10,24,20.50
2014,09,21,10,25,20.60
2014,09,21,10,26,20.60
2014,09,21,10,27,20.70
2014,09,21,10,28,20.70
2014,09,21,10,29,20.80
2014,09,21,10,30,20.90
2014,09,21,10,31,20.90
2014,09,21,10,32,20.90
2014,09,21,10,33,20.90
2014,09,21,10,34,21.00
2014,09,21,10,35,21.00
2014,09,21,10,36,21.00
2014,09,21,10,37,20.90
2014,09,21,10,38,20.90
2014,09,21,10,39,20.90
2014,09,21,10,40,20.90
2014,09,21,10,41,20.90
2014,09,21,10,42,21.00
2014,09,21,10,43,21.10
2014,09,21,10,44,21.10
2014,09,21,10,45,21.00
2014,09,21,10,46,21.00
2014,09,21,10,47,21.00
2014,09,21,10,48,21.00
2014,09,21,10,49,21.00
2014,09,21,10,50,21.10
2014,09,21,10,51,21.10
2014,09,21,10,52,21.00
2014,09,21,10,53,21.00
2014,09,21,10,54,21.00
2014,09,21,10,55,21.00
2014,09,21,10,56,21.00
2014,09,21,10,57,21.00
2014,09,21,10,58,21.00
2014,09,21,10,59,21.10
2014,09,21,11,00,21.10
2014,09,21,11,01,21.20
2014,09,21,11,02,21.20
2014,09,21,11,03,21.30
2014,09,21,11,04,21.40
2014,09,21,11,05,21.40
2014,09,21,11,06,21.50
2014,09,21,11,07,21.50
2014,09,21,11,08,21.60
2014,09,21,11,09,21.60
2014,09,21,11,10,21.70
2014,09,21,11,11,21.70
2014,09,21,11,12,21.70
2014,09,21,11,13,21.70
2014,09,21,11,14,21.80
2014,09,21,11,15,21.80
2014,09,21,11,16,21.90
2014,09,21,11,17,21.90
2014,09,21,11,18,22.00
2014,09,21,11,19,22.10
2014,09,21,11,20,22.10
2014,09,21,11,21,22.20
2014,09,21,11,22,22.20
2014,09,21,11,23,22.20
2014,09,21,11,24,22.20
2014,09,21,11,25,22.20
2014,09,21,11,26,22.20
2014,09,21,11,27,22.20
2014,09,21,11,28,22.30
2014,09,21,11,29,22.30
2014,09,21,11,30,22.40
2014,09,21,11,31,22.40
2014,09,21,11,32,22.50
2014,09,21,11,33,22.50
2014,09,21,11,34,22.60
2014,09,21,11,35,22.60
2014,09,21,11,36,22.60
2014,09,21,11,37,22.70
2014,09,21,11,38,22.70
2014,09,21,11,39,22.80
2014,09,21,11,40,22.90
2014,09,21,11,41,22.90
2014,09,21,11,42,23.00
2014,09,21,11,43,23.00
2014,09,21,11,44,23.10
2014,09,21,11,45,23.10
2014,09,21,11,46,23.10
2014,09,21,11,47,23.10
2014,09,21,11,48,23.00
2014,09,21,11,49,22.90
2014,09,21,11,50,22.80
2014,09,21,11,51,22.80
2014,09,21,11,52,22.70
2014,09,21,11,53,22.50
2014,09,21,11,54,22.30
2014,09,21,11,55,22.10
2014,09,21,11,56,21.90
2014,09,21,11,57,21.80
2014,09,21,11,58,21.60
2014,09,21,11,59,21.40
2014,09,21,12,00,21.20
2014,09,21,12,01,21.00
2014,09,21,12,02,20.80
2014,09,21,12,03,20.70
2014,09,21,12,04,20.60
2014,09,21,12,05,20.60
2014,09,21,12,06,20.40
2014,09,21,12,07,20.30
2014,09,21,12,08,20.20
2014,09,21,12,09,20.00
2014,09,21,12,10,19.90
2014,09,21,12,11,19.80
2014,09,21,12,12,19.70
2014,09,21,12,13,19.70
2014,09,21,12,14,19.60
2014,09,21,12,15,19.50
2014,09,21,12,16,19.40
2014,09,21,12,17,19.30
2014,09,21,12,18,19.30
2014,09,21,12,19,19.20
2014,09,21,12,20,19.20
2014,09,21,12,21,19.20
2014,09,21,12,22,19.20
2014,09,21,12,23,19.20
2014,09,21,12,24,19.20
2014,09,21,12,25,19.20
2014,09,21,12,26,19.20
2014,09,21,12,27,19.20
2014,09,21,12,28,19.20
2014,09,21,12,29,19.30
2014,09,21,12,30,19.30
2014,09,21,12,31,19.30
2014,09,21,12,32,19.30
2014,09,21,12,33,19.40
2014,09,21,12,34,19.50
2014,09,21,12,35,19.50
2014,09,21,12,36,19.50
2014,09,21,12,37,19.60
2014,09,21,12,38,19.50
2014,09,21,12,39,19.50
2014,09,21,12,40,19.40
2014,09,21,12,41,19.50
2014,09,21,12,42,19.50
2014,09,21,12,43,19.50
2014,09,21,12,44,19.50
2014,09,21,12,45,19.60
2014,09,21,12,46,19.70
2014,09,21,12,47,19.70
2014,09,21,12,48,19.80
2014,09,21,12,49,19.90
2014,09,21,12,50,20.00
2014,09,21,12,51,20.10
2014,09,21,12,52,20.10
2014,09,21,12,53,20.10
2014,09,21,12,54,20.20
2014,09,21,12,55,20.20
2014,09,21,12,56,20.20
2014,09,21,12,57,20.10
2014,09,21,12,58,20.10
2014,09,21,12,59,20.10
2014,09,21,13,00,20.10
2014,09,21,13,01,20.00
2014,09,21,13,02,20.00
2014,09,21,13,03,20.00
2014,09,21,13,04,20.10
2014,09,21,13,05,20.00
2014,09,21,13,06,20.00
2014,09,21,13,07,20.10
2014,09,21,13,08,20.10
2014,09,21,13,09,20.20
2014,09,21,13,10,20.20
2014,09,21,13,11,20.30
2014,09,21,13,12,20.30
2014,09,21,13,13,20.30
2014,09,21,13,14,20.30
2014,09,21,13,15,20.30
2014,09,21,13,16,20.30
2014,09,21,13,17,20.30
2014,09,21,13,18,20.30
2014,09,21,13,19,20.30
2014,09,21,13,20,20.40
2014,09,21,13,21,20.40
2014,09,21,13,22,20.40
2014,09,21,13,23,20.50
2014,09,21,13,24,20.50
2014,09,21,13,25,20.50
2014,09,21,13,26,20.60
2014,09,21,13,27,20.60
2014,09,21,13,28,20.60
2014,09,21,13,29,20.60
2014,09,21,13,30,20.60
2014,09,21,13,31,20.60
2014,09,21,13,32,20.60
2014,09,21,13,33,20.60
2014,09,21,13,34,20.60
2014,09,21,13,35,20.60
2014,09,21,13,36,20.60
2014,09,21,13,37,20.60
2014,09,21,13,38,20.60
2014,09,21,13,39,20.60
2014,09,21,13,40,20.70
2014,09,21,13,41,20.70
2014,09,21,13,42,20.80
2014,09,21,13,43,20.90
2014,09,21,13,44,21.00
2014,09,21,13,45,21.10
2014,09,21,13,46,21.10
2014,09,21,13,47,21.20
2014,09,21,13,48,21.20
2014,09,21,13,49,21.30
2014,09,21,13,50,21.30
2014,09,21,13,51,21.40
2014,09,21,13,52,21.40
2014,09,21,13,53,21.40
2014,09,21,13,54,21.40
2014,09,21,13,55,21.40
2014,09,21,13,56,21.40
2014,09,21,13,57,21.50
2014,09,21,13,58,21.50
2014,09,21,13,59,21.60
2014,09,21,14,00,21.70
2014,09,21,14,01,21.70
2014,09,21,14,02,21.80
2014,09,21,14,03,21.90
2014,09,21,14,04,21.90
2014,09,21,14,05,21.90
2014,09,21,14,06,22.00
2014,09,21,14,07,22.00
2014,09,21,14,08,22.10
2014,09,21,14,09,22.10
2014,09,21,14,10,22.10
2014,09,21,14,11,22.20
2014,09,21,14,12,22.20
2014,09,21,14,13,22.30
2014,09,21,14,14,22.40
2014,09,21,14,15,22.50
2014,09,21,14,16,22.60
2014,09,21,14,17,22.70
2014,09,21,14,18,22.80
2014,09,21,14,19,22.80
2014,09,21,14,20,22.80
2014,09,21,14,21,22.70
2014,09,21,14,22,22.70
2014,09,21,14,23,22.80
2014,09,21,14,24,22.80
2014,09,21,14,25,22.80
2014,09,21,14,26,22.80
2014,09,21,14,27,22.80
2014,09,21,14,28,22.80
2014,09,21,14,29,22.70
2014,09,21,14,30,22.70
2014,09,21,14,31,22.70
2014,09,21,14,32,22.70
2014,09,21,14,33,22.70
2014,09,21,14,34,22.70
2014,09,21,14,35,22.70
2014,09,21,14,36,22.70
2014,09,21,14,37,22.70
2014,09,21,14,38,22.70
2014,09,21,14,39,22.70
2014,09,21,14,40,22.70
2014,09,21,14,41,22.70
2014,09,21,14,42,22.80
2014,09,21,14,43,22.80
2014,09,21,14,44,22.80
2014,09,21,14,45,22.80
2014,09,21,14,46,22.80
2014,09,21,14,47,22.80
2014,09,21,14,48,22.80
2014,09,21,14,49,22.90
2014,09,21,14,50,22.90
2014,09,21,14,51,22.90
2014,09,21,14,52,22.90
2014,09,21,14,53,22.90
2014,09,21,14,54,22.90
2014,09,21,14,55,23.00
2014,09,21,14,56,23.00
2014,09,21,14,57,23.00
2014,09,21,14,58,23.10
2014,09,21,14,59,23.10
2014,09,21,15,00,23.20
2014,09,21,15,01,23.20
2014,09,21,15,02,23.40
2014,09,21,15,03,23.40
2014,09,21,15,04,23.50
2014,09,21,15,05,23.60
2014,09,21,15,06,23.70
2014,09,21,15,07,23.80
2014,09,21,15,08,23.80
2014,09,21,15,09,23.90
2014,09,21,15,10,23.90
2014,09,21,15,11,23.90
2014,09,21,15,12,23.80
2014,09,21,15,13,23.80
2014,09,21,15,14,23.80
2014,09,21,15,15,23.90
2014,09,21,15,16,23.90
2014,09,21,15,17,23.90
2014,09,21,15,18,23.90
2014,09,21,15,19,23.90
2014,09,21,15,20,24.00
2014,09,21,15,21,24.00
2014,09,21,15,22,24.10
2014,09,21,15,23,24.10
2014,09,21,15,24,24.20
2014,09,21,15,25,24.20
2014,09,21,15,26,24.20
2014,09,21,15,27,24.20
2014,09,21,15,28,24.20
2014,09,21,15,29,24.10
2014,09,21,15,30,24.10
2014,09,21,15,31,24.10
2014,09,21,15,32,24.00
2014,09,21,15,33,24.00
2014,09,21,15,34,24.00
2014,09,21,15,35,24.00
2014,09,21,15,36,24.10
2014,09,21,15,37,24.10
2014,09,21,15,38,24.10
2014,09,21,15,39,24.10
2014,09,21,15,40,24.20
2014,09,21,15,41,24.30
2014,09,21,15,42,24.30
2014,09,21,15,43,24.30
2014,09,21,15,44,24.40
2014,09,21,15,45,24.40
2014,09,21,15,46,24.40
2014,09,21,15,47,24.50
2014,09,21,15,48,24.50
2014,09,21,15,49,24.50
2014,09,21,15,50,24.50
2014,09,21,15,51,24.50
2014,09,21,15,52,24.50
2014,09,21,15,53,24.50
2014,09,21,15,54,24.50
2014,09,21,15,55,24.60
2014,09,21,15,56,24.60
2014,09,21,15,57,24.70
2014,09,21,15,58,24.70
2014,09,21,15,59,24.70
2014,09,21,16,00,24.70
2014,09,21,16,01,24.80
2014,09,21,16,02,24.80
2014,09,21,16,03,24.80
2014,09,21,16,04,24.80
2014,09,21,16,05,24.80
2014,09,21,16,06,24.90
2014,09,21,16,07,24.90
2014,09,21,16,08,24.90
2014,09,21,16,09,24.90
2014,09,21,16,10,25.00
2014,09,21,16,11,25.00
2014,09,21,16,12,25.00
2014,09,21,16,13,24.90
2014,09,21,16,14,24.90
2014,09,21,16,15,24.90
2014,09,21,16,16,24.80
2014,09,21,16,17,24.80
2014,09,21,16,18,24.70
2014,09,21,16,19,24.70
2014,09,21,16,20,24.70
2014,09,21,16,21,24.70
2014,09,21,16,22,24.70
2014,09,21,16,23,24.60
2014,09,21,16,24,24.50
2014,09,21,16,25,24.50
2014,09,21,16,26,24.40
2014,09,21,16,27,24.40
2014,09,21,16,28,24.30
2014,09,21,16,29,24.30
2014,09,21,16,30,24.20
2014,09,21,16,31,24.20
2014,09,21,16,32,24.20
2014,09,21,16,33,24.30
2014,09,21,16,34,24.30
2014,09,21,16,35,24.30
2014,09,21,16,36,24.30
2014,09,21,16,37,24.30
2014,09,21,16,38,24.30
2014,09,21,16,39,24.30
2014,09,21,16,40,24.20
2014,09,21,16,41,24.20
2014,09,21,16,42,24.10
2014,09,21,16,43,24.10
2014,09,21,16,44,24.10
2014,09,21,16,45,24.10
2014,09,21,16,46,24.10
2014,09,21,16,47,24.00
2014,09,21,16,48,24.00
2014,09,21,16,49,24.00
2014,09,21,16,50,24.00
2014,09,21,16,51,24.00
2014,09,21,16,52,23.90
2014,09,21,16,53,23.90
2014,09,21,16,54,23.90
2014,09,21,16,55,23.90
2014,09,21,16,56,23.90
2014,09,21,16,57,23.90
2014,09,21,16,58,23.90
2014,09,21,16,59,23.90
2014,09,21,17,00,23.90
2014,09,21,17,01,23.90
2014,09,21,17,02,23.90
2014,09,21,17,03,23.80
2014,09,21,17,04,23.80
2014,09,21,17,05,23.90
2014,09,21,17,06,23.90
2014,09,21,17,07,23.90
2014,09,21,17,08,23.90
2014,09,21,17,09,23.90
2014,09,21,17,10,23.80
2014,09,21,17,11,23.80
2014,09,21,17,12,23.80
2014,09,21,17,13,23.80
2014,09,21,17,14,23.70
2014,09,21,17,15,23.60
2014,09,21,17,16,23.50
2014,09,21,17,17,23.50
2014,09,21,17,18,23.40
2014,09,21,17,19,23.40